Location: Borotín
(49.5055°N, 14.6142°E)
Time: 07:13:31
(UTC+00:00)

MSX - Pass Details

Date: 27 May 2022
Orbit: 895 x 905 km, 98.9° (Epoch: 28 June)

Event Time Altitude Azimuth Distance (km) Brightness Sun altitude
Rises 02:16:02 0° 12° (NNE) 3,535 8.0 -6.8°
Reaches altitude 10° 02:18:29 10° 8° (N) 2,592 7.1 -6.5°
Maximum altitude 02:24:05 55° 292° (WNW) 1,084 4.2 -5.9°
Drops below altitude 10° 02:29:41 10° 217° (SW) 2,580 5.6 -5.2°
Enters shadow 02:30:51 - 214° (SW) 3,028 5.9 -5.0°
